| time (UTC) | temp F | wind direction | speed MPH | gust MPH | rain 1hr in | rain 24hr in | rain mn in | humidity % | barometer mb |
| 20260508170022 | 66 | 355 | 8.0 | 15.0 | 0.00 | 0.00 | 0.00 | 21 | 1006.3 |
| 20260508164517 | 66 | 286 | 6.0 | 14.0 | 0.00 | 0.00 | 0.00 | 20 | 1006.6 |
| 20260508163017 | 65 | 248 | 6.0 | 12.0 | 0.00 | 0.00 | 0.00 | 19 | 1006.8 |
| 20260508161510 | 64 | 248 | 5.0 | 10.0 | 0.00 | 0.00 | 0.00 | 20 | 1006.9 |
| 20260508160005 | 63 | 248 | 5.0 | 9.0 | 0.00 | 0.00 | 0.00 | 20 | 1007.1 |
| 20260508154605 | 61 | 248 | 6.0 | 11.0 | 0.00 | 0.00 | 0.00 | 20 | 1007.2 |
| 20260508153057 | 60 | 248 | 3.0 | 8.0 | 0.00 | 0.00 | 0.00 | 21 | 1007.4 |
| 20260508151554 | 60 | 248 | 6.0 | 9.0 | 0.00 | 0.00 | 0.00 | 21 | 1007.6 |
| 20260508150048 | 58 | 248 | 6.0 | 9.0 | 0.00 | 0.00 | 0.00 | 22 | 1007.6 |
| 20260508144545 | 58 | 248 | 5.0 | 11.0 | 0.00 | 0.00 | 0.00 | 23 | 1007.7 |
| 20260508143038 | 57 | 248 | 5.0 | 10.0 | 0.00 | 0.00 | 0.00 | 23 | 1007.8 |
| 20260508141604 | 56 | 248 | 4.0 | 10.0 | 0.00 | 0.00 | 0.00 | 24 | 1007.9 |
| 20260508140031 | 55 | 248 | 7.0 | 11.0 | 0.00 | 0.00 | 0.00 | 24 | 1008.0 |
| 20260508134530 | 55 | 248 | 6.0 | 10.0 | 0.00 | 0.00 | 0.00 | 25 | 1008.0 |
| 20260508133021 | 53 | 248 | 5.0 | 10.0 | 0.00 | 0.00 | 0.00 | 27 | 1008.0 |
| 20260508131517 | 51 | 248 | 4.0 | 6.0 | 0.00 | 0.00 | 0.00 | 31 | 1007.9 |
| 20260508130012 | 48 | 248 | 3.0 | 5.0 | 0.00 | 0.00 | 0.00 | 32 | 1007.7 |
| 20260508124507 | 47 | 248 | 2.0 | 4.0 | 0.00 | 0.00 | 0.00 | 32 | 1007.6 |
| 20260508123004 | 45 | 248 | 2.0 | 4.0 | 0.00 | 0.00 | 0.00 | 34 | 1007.6 |
| 20260508121509 | 45 | 248 | 3.0 | 6.0 | 0.00 | 0.00 | 0.00 | 30 | 1007.6 |
| 20260508120100 | 44 | 248 | 3.0 | 7.0 | 0.00 | 0.00 | 0.00 | 29 | 1007.4 |
| 20260508114558 | 43 | 248 | 2.0 | 6.0 | 0.00 | 0.00 | 0.00 | 29 | 1007.3 |
| 20260508113106 | 44 | 248 | 3.0 | 6.0 | 0.00 | 0.00 | 0.00 | 33 | 1007.5 |
| 20260508111552 | 46 | 248 | 2.0 | 4.0 | 0.00 | 0.00 | 0.00 | 31 | 1007.4 |
| 20260508110056 | 46 | 248 | 1.0 | 3.0 | 0.00 | 0.00 | 0.00 | 31 | 1007.3 |
| 20260508104552 | 46 | 248 | 1.0 | 4.0 | 0.00 | 0.00 | 0.00 | 30 | 1007.3 |
| 20260508103046 | 46 | 248 | 1.0 | 3.0 | 0.00 | 0.00 | 0.00 | 29 | 1007.1 |
| 20260508101544 | 47 | 248 | 1.0 | 3.0 | 0.00 | 0.00 | 0.00 | 28 | 1007.0 |
| 20260508100041 | 48 | 248 | 2.0 | 4.0 | 0.00 | 0.00 | 0.00 | 26 | 1007.0 |
| 20260508094537 | 50 | 248 | 1.0 | 3.0 | 0.00 | 0.00 | 0.00 | 23 | 1007.2 |
| 20260508093041 | 49 | 248 | 1.0 | 3.0 | 0.00 | 0.00 | 0.00 | 20 | 1007.3 |
| 20260508091547 | 50 | 248 | 0.0 | 2.0 | 0.00 | 0.00 | 0.00 | 20 | 1007.4 |
| 20260508090039 | 50 | 248 | 1.0 | 3.0 | 0.00 | 0.00 | 0.00 | 19 | 1007.7 |
| 20260508084532 | 51 | 248 | 2.0 | 3.0 | 0.00 | 0.00 | 0.00 | 19 | 1007.8 |
| 20260508083031 | 50 | 248 | 1.0 | 3.0 | 0.00 | 0.00 | 0.00 | 19 | 1007.8 |
| 20260508081533 | 49 | 248 | 2.0 | 3.0 | 0.00 | 0.00 | 0.00 | 20 | 1007.9 |
| 20260508080034 | 48 | 248 | 1.0 | 4.0 | 0.00 | 0.00 | 0.00 | 21 | 1008.1 |
| 20260508074530 | 49 | 248 | 1.0 | 3.0 | 0.00 | 0.00 | 0.00 | 20 | 1008.2 |
| 20260508073026 | 49 | 248 | 1.0 | 3.0 | 0.00 | 0.00 | 0.00 | 20 | 1008.4 |
| 20260508071529 | 49 | 248 | 2.0 | 4.0 | 0.00 | 0.00 | 0.00 | 20 | 1008.5 |
| 20260508070023 | 48 | 248 | 1.0 | 4.0 | 0.00 | 0.00 | 0.00 | 21 | 1008.7 |
| 20260508064521 | 49 | 248 | 2.0 | 4.0 | 0.00 | 0.00 | 0.00 | 20 | 1008.7 |
| 20260508063018 | 51 | 248 | 2.0 | 4.0 | 0.00 | 0.00 | 0.00 | 18 | 1008.6 |
| 20260508061513 | 54 | 248 | 0.0 | 0.0 | 0.00 | 0.00 | 0.00 | 15 | 1008.5 |
| 20260508060013 | 55 | 248 | 1.0 | 2.0 | 0.00 | 0.00 | 0.00 | 15 | 1008.6 |
| 20260508054509 | 54 | 248 | 0.0 | 2.0 | 0.00 | 0.00 | 0.00 | 15 | 1008.7 |
| 20260508053002 | 53 | 248 | 0.0 | 2.0 | 0.00 | 0.00 | 0.00 | 16 | 1008.8 |
| 20260508051557 | 51 | 248 | 0.0 | 4.0 | 0.00 | 0.00 | 0.00 | 18 | 1008.9 |
| 20260508050054 | 51 | 248 | 1.0 | 3.0 | 0.00 | 0.00 | 0.00 | 18 | 1009.1 |
| 20260508044549 | 52 | 248 | 2.0 | 4.0 | 0.00 | 0.00 | 0.00 | 17 | 1009.2 |
| 20260508043046 | 52 | 248 | 2.0 | 4.0 | 0.00 | 0.00 | 0.00 | 17 | 1009.3 |
| 20260508041542 | 54 | 248 | 1.0 | 3.0 | 0.00 | 0.00 | 0.00 | 17 | 1009.3 |
| 20260508040038 | 55 | 248 | 0.0 | 3.0 | 0.00 | 0.00 | 0.00 | 16 | 1009.1 |
| 20260508034533 | 55 | 248 | 1.0 | 4.0 | 0.00 | 0.00 | 0.00 | 16 | 1009.0 |
| 20260508033029 | 55 | 248 | 1.0 | 3.0 | 0.00 | 0.00 | 0.00 | 15 | 1008.9 |
| 20260508031524 | 56 | 248 | 1.0 | 4.0 | 0.00 | 0.00 | 0.00 | 13 | 1008.6 |
| 20260508030021 | 57 | 248 | 2.0 | 8.0 | 0.00 | 0.00 | 0.00 | 13 | 1008.5 |
| 20260508024515 | 58 | 248 | 2.0 | 11.0 | 0.00 | 0.00 | 0.00 | 12 | 1008.2 |
| 20260508023011 | 59 | 248 | 7.0 | 13.0 | 0.00 | 0.00 | 0.00 | 11 | 1007.9 |
| 20260508021518 | 60 | 248 | 6.0 | 10.0 | 0.00 | 0.00 | 0.00 | 10 | 1007.9 |
| 20260508020002 | 62 | 248 | 7.0 | 12.0 | 0.00 | 0.00 | 0.00 | 10 | 1007.7 |
| 20260508014559 | 63 | 248 | 8.0 | 11.0 | 0.00 | 0.00 | 0.00 | 9 | 1007.8 |
| 20260508013053 | 65 | 248 | 8.0 | 14.0 | 0.00 | 0.00 | 0.00 | 9 | 1007.8 |
| 20260508011549 | 65 | 248 | 7.0 | 16.0 | 0.00 | 0.00 | 0.00 | 9 | 1007.7 |
| 20260508010044 | 66 | 265 | 9.0 | 13.0 | 0.00 | 0.00 | 0.00 | 9 | 1007.7 |
| 20260508004542 | 68 | 279 | 5.0 | 9.0 | 0.00 | 0.00 | 0.00 | 10 | 1007.9 |
| 20260508003038 | 68 | 279 | 3.0 | 11.0 | 0.00 | 0.00 | 0.00 | 10 | 1008.0 |
| 20260508001533 | 68 | 279 | 1.0 | 10.0 | 0.00 | 0.00 | 0.00 | 10 | 1008.2 |
| 20260508000027 | 68 | 279 | 2.0 | 9.0 | 0.00 | 0.00 | 0.00 | 10 | 1008.4 |
| 20260507234523 | 69 | 279 | 3.0 | 9.0 | 0.00 | 0.00 | 0.00 | 11 | 1008.5 |
| 20260507233030 | 69 | 281 | 2.0 | 13.0 | 0.00 | 0.00 | 0.00 | 13 | 1008.6 |
| 20260507231514 | 70 | 287 | 5.0 | 13.0 | 0.00 | 0.00 | 0.00 | 13 | 1008.6 |
| 20260507230010 | 69 | 287 | 4.0 | 12.0 | 0.00 | 0.00 | 0.00 | 15 | 1008.7 |
| 20260507224505 | 69 | 287 | 4.0 | 9.0 | 0.00 | 0.00 | 0.00 | 16 | 1008.9 |
| 20260507223001 | 68 | 290 | 5.0 | 13.0 | 0.00 | 0.00 | 0.00 | 17 | 1008.9 |
| 20260507221557 | 70 | 309 | 3.0 | 11.0 | 0.00 | 0.00 | 0.00 | 17 | 1009.4 |
| 20260507220053 | 69 | 309 | 5.0 | 11.0 | 0.00 | 0.00 | 0.00 | 15 | 1009.8 |
| 20260507214608 | 67 | 333 | 2.0 | 8.0 | 0.00 | 0.00 | 0.00 | 16 | 1010.1 |
| 20260507213051 | 68 | 333 | 3.0 | 10.0 | 0.00 | 0.00 | 0.00 | 14 | 1010.4 |
| 20260507211539 | 68 | 333 | 3.0 | 9.0 | 0.00 | 0.00 | 0.00 | 12 | 1010.7 |
| 20260507210048 | 68 | 333 | 4.0 | 9.0 | 0.00 | 0.00 | 0.00 | 11 | 1011.0 |
| 20260507204530 | 66 | 333 | 3.0 | 7.0 | 0.00 | 0.00 | 0.00 | 10 | 1011.4 |
| 20260507203026 | 65 | 333 | 3.0 | 11.0 | 0.00 | 0.00 | 0.00 | 8 | 1011.8 |
| 20260507201523 | 65 | 325 | 4.0 | 8.0 | 0.00 | 0.00 | 0.00 | 9 | 1011.9 |
| 20260507200019 | 64 | 324 | 5.0 | 11.0 | 0.00 | 0.00 | 0.00 | 8 | 1012.2 |
| 20260507194519 | 64 | 315 | 3.0 | 12.0 | 0.00 | 0.00 | 0.00 | 9 | 1012.2 |
| 20260507193015 | 63 | 346 | 6.0 | 11.0 | 0.00 | 0.00 | 0.00 | 10 | 1012.4 |
| 20260507191513 | 63 | 350 | 5.0 | 12.0 | 0.00 | 0.00 | 0.00 | 14 | 1012.6 |
| 20260507190011 | 62 | 350 | 5.0 | 15.0 | 0.00 | 0.00 | 0.00 | 15 | 1012.7 |
| 20260507184515 | 61 | 360 | 8.0 | 14.0 | 0.00 | 0.00 | 0.00 | 16 | 1012.8 |
| 20260507183004 | 60 | 360 | 7.0 | 14.0 | 0.00 | 0.00 | 0.00 | 16 | 1013.0 |
| 20260507181600 | 59 | 24 | 8.0 | 16.0 | 0.00 | 0.00 | 0.00 | 18 | 1013.2 |
| 20260507174553 | 57 | 5 | 7.0 | 16.0 | 0.00 | 0.00 | 0.00 | 25 | 1013.7 |
| 20260507173049 | 55 | 355 | 8.0 | 17.0 | 0.00 | 0.00 | 0.00 | 29 | 1014.0 |
| 20260507171550 | 54 | 17 | 10.0 | 17.0 | 0.00 | 0.00 | 0.00 | 33 | 1014.0 |